Change the Weather History Date:

Thursday, June 7, 2012

  Actual Average Record
Temperature  
Mean Temperature 86 °F 83 °F  
Max Temperature 92 °F 89 °F 94 °F (1975)
Min Temperature 80 °F 78 °F 72 °F (1953)
Degree Days  
Heating Degree Days 0 0  
Month to date heating degree days 0 0  
Since 1 June heating degree days 0 0  
Since 1 July heating degree days 0 0  
Cooling Degree Days 21 18  
Month to date cooling degree days 143 126  
Year to date cooling degree days 2324 2291  
Since 1 June cooling degree days 143 126  
Growing Degree Days 36 (Base 50)    
Moisture  
Dew Point 75 °F    
Average Humidity 74    
Maximum Humidity 91    
Minimum Humidity 56    
Precipitation  
Precipitation 0.00 in 0.16 in 2.72 in (1992)
Month to date precipitation T 1.16  
Year to date precipitation 25.55 19.84  
Sea Level Pressure  
Sea Level Pressure 30.05 in    
Wind  
Wind Speed 13 mph (East)    
Max Wind Speed 23 mph    
Max Gust Speed 28 mph    
Visibility 10 miles    
Events      
T = Trace of Precipitation, MM = Missing Value Source: NWS Daily Summary

Daily Weather History Graph

Daily Weather History Graph

Search for Another Location

Airport or City:

Trip Planner

Search our weather history database for the weather conditions in past years. The results will help you decide how hot, cold, wet, or windy it might be!

Date:

Astronomy

Jun. 07, 2012 Rise Set
Actual Time 5:46 AM AST 6:59 PM AST
Civil Twilight 5:22 AM AST 7:23 PM AST
Nautical Twilight 4:54 AM AST 7:52 PM AST
Astronomical Twilight 4:24 AM AST 8:21 PM AST
Moon 10:08 PM AST (6/7) 8:57 AM AST (6/7)
Length of Visible Light 14h 00m
Length of Day
13h 12m
Waning Gibbous, 86% of the Moon is Illuminated
Jun 7
Waning Gibbous
Jun 11
Last Quarter
Jun 19
New
Jun 26
First Quarter
Jul 3
Full

Hourly Weather History & Observations

Time (AST) Temp. Heat Index Dew Point Humidity Pressure Visibility Wind Dir Wind Speed Gust Speed Precip Events Conditions
12:56 AM 82.0 °F 90.2 °F 77.0 °F 85% 30.07 in 10.0 mi East 8.1 mph - N/A   Scattered Clouds
1:56 AM 81.0 °F 87.9 °F 77.0 °F 88% 30.07 in 10.0 mi East 6.9 mph - N/A   Scattered Clouds
2:56 AM 81.0 °F 86.7 °F 75.0 °F 82% 30.06 in 10.0 mi East 9.2 mph - N/A   Scattered Clouds
3:56 AM 81.0 °F 86.7 °F 75.0 °F 82% 30.06 in 10.0 mi East 6.9 mph - N/A   Mostly Cloudy
4:56 AM 81.0 °F 86.7 °F 75.0 °F 82% 30.06 in 10.0 mi East 9.2 mph - N/A   Mostly Cloudy
5:56 AM 81.0 °F 86.7 °F 75.0 °F 82% 30.06 in 10.0 mi East 10.4 mph - N/A   Scattered Clouds
6:56 AM 81.0 °F 86.2 °F 73.9 °F 79% 30.07 in 10.0 mi East 6.9 mph - N/A   Scattered Clouds
7:56 AM 84.9 °F 93.3 °F 75.0 °F 72% 30.08 in 10.0 mi East 12.7 mph - N/A   Scattered Clouds
8:56 AM 87.1 °F 94.5 °F 73.0 °F 63% 30.09 in 10.0 mi East 15.0 mph 21.9 mph N/A   Scattered Clouds
9:56 AM 88.0 °F 93.8 °F 71.1 °F 57% 30.09 in 10.0 mi East 16.1 mph - N/A   Scattered Clouds
10:56 AM 88.0 °F 95.6 °F 73.0 °F 61% 30.08 in 10.0 mi East 19.6 mph 26.5 mph N/A   Scattered Clouds
11:56 AM 89.1 °F 97.0 °F 73.0 °F 59% 30.06 in 9.0 mi East 19.6 mph - N/A   Scattered Clouds
12:56 PM 91.9 °F 100.7 °F 73.0 °F 54% 30.04 in 9.0 mi East 16.1 mph - N/A   Scattered Clouds
1:56 PM 91.0 °F 100.4 °F 73.9 °F 57% 30.02 in 9.0 mi East 19.6 mph - N/A   Scattered Clouds
2:56 PM 89.1 °F 97.0 °F 73.0 °F 59% 30.01 in 9.0 mi East 18.4 mph 26.5 mph N/A   Scattered Clouds
3:56 PM 89.1 °F 99.1 °F 75.0 °F 63% 29.99 in 9.0 mi East 19.6 mph 25.3 mph N/A   Scattered Clouds
4:56 PM 88.0 °F 97.5 °F 75.0 °F 65% 29.99 in 9.0 mi East 15.0 mph - N/A   Scattered Clouds
5:56 PM 84.9 °F 93.3 °F 75.0 °F 72% 30.01 in 9.0 mi East 15.0 mph - N/A   Scattered Clouds
6:56 PM 84.0 °F 91.9 °F 75.0 °F 74% 30.02 in 9.0 mi East 13.8 mph - N/A   Scattered Clouds
7:56 PM 82.9 °F 90.8 °F 75.9 °F 79% 30.04 in 10.0 mi East 11.5 mph - N/A   Scattered Clouds
8:56 PM 82.9 °F 90.8 °F 75.9 °F 79% 30.05 in 10.0 mi East 8.1 mph - N/A   Scattered Clouds
9:56 PM 82.0 °F 88.6 °F 75.0 °F 79% 30.06 in 10.0 mi East 9.2 mph - N/A   Scattered Clouds
10:56 PM 82.0 °F 88.6 °F 75.0 °F 79% 30.06 in 10.0 mi ESE 6.9 mph - N/A   Scattered Clouds
11:56 PM 82.0 °F 89.4 °F 75.9 °F 82% 30.05 in 10.0 mi East 5.8 mph - N/A   Partly Cloudy